Waarnemingen

Advertentie
Mijn weer
Spa/La Sauveniere, België (6490): temperatuur & dauwpunt: 15.06.2019 00:00:00 - 21.06.2019 00:00:00 (CEST)Spa/La Sauveniere, België (6490): windsnelheid & windstoten: 15.06.2019 00:00:00 - 21.06.2019 00:00:00 (CEST)Spa/La Sauveniere, België (6490): windrichting: 15.06.2019 00:00:00 - 21.06.2019 00:00:00 (CEST)Spa/La Sauveniere, België (6490): luchtdruk: 15.06.2019 00:00:00 - 21.06.2019 00:00:00 (CEST)Spa/La Sauveniere, België (6490): zicht: 15.06.2019 00:00:00 - 21.06.2019 00:00:00 (CEST)
Datum & Tijd tt [°C] td [°C] ff [km/u] ff [kn] fx [km/u] fx [kn] dd ppp [hPa] vv [km]
21.06.2019 00:00:00 12,5 7,9 7 4 11 6 WZW 1017,4 45
20.06.2019 23:00:00 13,3 8,7 4 2 - - W 1016,8 40
20.06.2019 22:00:00 14,5 9,6 7 4 18 10 WNW 1016,1 40
20.06.2019 21:00:00 15,7 10,9 7 4 18 10 W 1015,3 35
20.06.2019 20:00:00 16,1 11,6 7 4 - - W 1014,7 30
20.06.2019 19:00:00 16,4 12,3 11 6 22 12 W 1014,1 30
20.06.2019 18:00:00 16,9 13,3 7 4 22 12 W 1013,7 35
20.06.2019 17:00:00 15,5 12,8 11 6 - - W 1013,9 13
20.06.2019 16:00:00 14,3 11,5 7 4 22 12 W 1014,1 -
20.06.2019 15:00:00 13,8 12,6 11 6 22 12 WNW 1014,0 4,2
20.06.2019 14:00:00 14,0 12,5 11 6 - - WNW 1013,7 4,1
20.06.2019 13:00:00 15,6 11,2 7 4 18 10 W 1013,0 27
20.06.2019 12:00:00 16,2 11,3 11 6 14 8 ZW 1012,7 35
20.06.2019 11:00:00 15,9 11,6 11 6 - - ZZW 1012,7 35
20.06.2019 10:00:00 16,2 12,2 11 6 22 12 Z 1012,2 25
20.06.2019 09:00:00 14,5 10,8 11 6 14 8 ZZW 1012,3 15
20.06.2019 08:00:00 13,7 10,4 7 4 - - WZW 1012,5 12
20.06.2019 07:00:00 13,1 12,3 7 4 18 10 W 1012,3 10
20.06.2019 06:00:00 12,9 10,0 7 4 18 10 W 1012,1 11
20.06.2019 05:00:00 13,0 10,1 7 4 - - WZW 1011,7 13
20.06.2019 04:00:00 13,9 12,5 7 4 22 12 W 1011,0 13
20.06.2019 03:00:00 14,1 12,6 11 6 22 12 WZW 1010,7 30
20.06.2019 02:00:00 14,8 13,6 11 6 - - ZW 1010,6 45
20.06.2019 01:00:00 16,1 12,7 14 8 22 12 ZZW 1010,1 45
20.06.2019 00:00:00 15,6 12,3 4 2 32 18 ZW 1010,3 35
19.06.2019 23:00:00 16,1 12,3 14 8 - - Z 1009,6 35
19.06.2019 22:00:00 16,3 12,0 11 6 29 16 Z 1009,6 28
19.06.2019 21:00:00 16,6 11,9 11 6 25 14 ZZO 1009,1 40
19.06.2019 20:00:00 16,2 - 7 4 - - WZW - 30
19.06.2019 19:00:00 18,6 12,7 29 16 50 27 W 1009,5 35
19.06.2019 18:00:00 23,7 11,7 18 10 36 19 ZZW 1006,6 45
19.06.2019 17:00:00 24,9 11,2 22 12 - - ZZW 1006,6 35
19.06.2019 16:00:00 25,4 9,7 18 10 32 18 ZZW 1007,1 30
19.06.2019 15:00:00 24,1 12,4 18 10 29 16 Z 1008,0 35
19.06.2019 14:00:00 21,5 11,1 11 6 - - WZW 1009,5 30
19.06.2019 13:00:00 23,7 13,3 14 8 25 14 W 1008,3 30
19.06.2019 12:00:00 23,1 14,0 14 8 43 23 Z 1008,5 27
19.06.2019 11:00:00 22,1 12,9 22 12 - - Z 1008,4 30
19.06.2019 10:00:00 22,2 13,0 22 12 40 21 Z 1007,6 40
19.06.2019 09:00:00 21,3 13,5 22 12 32 18 Z 1007,6 35
19.06.2019 08:00:00 19,7 12,9 22 12 - - ZZO 1007,5 30
19.06.2019 07:00:00 18,2 12,5 22 12 32 18 ZO 1008,2 40
19.06.2019 06:00:00 17,9 11,8 22 12 29 16 ZZO 1009,1 45
19.06.2019 05:00:00 18,3 11,6 18 10 - - ZZO 1009,2 45
19.06.2019 04:00:00 17,8 11,1 18 10 22 12 ZZO 1009,9 45
19.06.2019 03:00:00 17,6 10,6 14 8 18 10 ZZO 1010,4 45
19.06.2019 02:00:00 17,6 10,1 14 8 - - ZZO 1010,9 45
19.06.2019 01:00:00 17,1 9,4 14 8 18 10 ZZO 1011,6 45
19.06.2019 00:00:00 17,2 9,8 11 6 14 8 Z 1012,0 45
18.06.2019 23:00:00 17,2 9,8 7 4 - - Z 1012,5 45
18.06.2019 22:00:00 19,6 11,5 11 6 14 8 Z 1012,3 45
18.06.2019 21:00:00 21,8 13,1 7 4 11 6 OZO 1011,6 30
18.06.2019 20:00:00 23,2 13,4 4 2 - - NO 1011,4 30
18.06.2019 19:00:00 23,5 14,3 11 6 14 8 NO 1011,6 30
18.06.2019 18:00:00 23,2 13,1 7 4 14 8 N 1012,2 35
18.06.2019 17:00:00 23,7 13,2 11 6 - - N 1012,6 35
18.06.2019 16:00:00 23,3 12,9 7 4 18 10 NW 1013,0 40
18.06.2019 15:00:00 23,2 12,5 11 6 18 10 NNW 1013,1 35
18.06.2019 14:00:00 24,4 11,1 7 4 - - - 1013,0 35
18.06.2019 13:00:00 24,2 10,8 11 6 18 10 Z 1013,5 40
18.06.2019 12:00:00 23,9 11,0 0 0 11 6 N 1013,8 30
18.06.2019 11:00:00 22,4 11,3 0 0 - - N 1014,4 17
18.06.2019 10:00:00 21,7 11,2 7 4 11 6 N 1015,0 29
18.06.2019 09:00:00 21,4 13,6 7 4 11 6 ZZO 1015,1 35
18.06.2019 08:00:00 18,8 12,2 4 2 - - ZO 1015,7 35
18.06.2019 07:00:00 15,0 9,6 4 2 14 8 - 1016,3 40
18.06.2019 06:00:00 14,1 8,6 14 8 18 10 ZZO 1016,3 45
18.06.2019 05:00:00 14,5 8,5 14 8 - - ZZO 1016,6 45
18.06.2019 04:00:00 14,5 8,0 11 6 14 8 ZZO 1016,9 45
18.06.2019 03:00:00 15,1 8,4 14 8 14 8 ZZO 1017,2 45
18.06.2019 02:00:00 15,2 8,1 14 8 - - ZZO 1017,5 45
18.06.2019 01:00:00 16,2 8,3 14 8 14 8 ZZO 1017,7 45
18.06.2019 00:00:00 15,8 7,8 11 6 14 8 ZZO 1017,7 45
17.06.2019 23:00:00 16,3 7,1 7 4 - - ZZO 1017,7 45
17.06.2019 22:00:00 17,7 7,5 7 4 11 6 Z 1017,5 45
17.06.2019 21:00:00 20,3 8,2 7 4 11 6 Z 1017,0 45
17.06.2019 20:00:00 22,0 7,4 7 4 - - ZW 1016,9 45
17.06.2019 19:00:00 23,6 7,7 7 4 18 10 Z 1016,8 45
17.06.2019 18:00:00 23,8 8,9 7 4 14 8 OZO 1016,9 35
17.06.2019 17:00:00 23,6 9,1 7 4 - - ZZO 1017,3 35
17.06.2019 16:00:00 23,0 8,7 7 4 22 12 - 1017,8 40
17.06.2019 15:00:00 23,3 9,2 4 2 22 12 - 1018,2 35
17.06.2019 14:00:00 22,1 9,9 7 4 - - ZO 1018,9 30
17.06.2019 13:00:00 20,9 9,8 0 0 22 12 N 1019,6 35
17.06.2019 12:00:00 20,2 8,8 11 6 22 12 ZW 1020,0 40
17.06.2019 11:00:00 19,2 9,6 14 8 - - Z 1020,3 30
17.06.2019 10:00:00 18,7 11,6 18 10 25 14 ZZO 1020,7 35
17.06.2019 09:00:00 17,1 11,2 18 10 25 14 ZZO 1021,2 30
17.06.2019 08:00:00 15,1 10,2 18 10 - - ZZO 1021,3 35
17.06.2019 07:00:00 13,5 9,2 14 8 22 12 ZO 1021,5 35
17.06.2019 06:00:00 12,6 8,7 11 6 18 10 ZZO 1022,0 45
17.06.2019 05:00:00 12,7 8,6 14 8 - - ZZO 1022,2 45
17.06.2019 04:00:00 12,2 8,4 14 8 14 8 ZZO 1022,3 45
17.06.2019 03:00:00 11,6 7,6 11 6 14 8 ZZO 1022,7 45
17.06.2019 02:00:00 11,4 7,5 11 6 - - ZZO 1022,8 45
17.06.2019 01:00:00 11,7 7,3 11 6 14 8 ZZO 1022,8 40
17.06.2019 00:00:00 12,0 7,1 11 6 14 8 ZZO 1022,7 45
16.06.2019 23:00:00 12,2 6,8 7 4 - - Z 1022,7 45
16.06.2019 22:00:00 13,9 8,1 4 2 7 4 ZZO 1022,1 45
16.06.2019 21:00:00 17,1 8,8 4 2 11 6 WZW 1021,4 45
16.06.2019 20:00:00 17,6 8,6 7 4 - - W 1021,3 45
16.06.2019 19:00:00 18,1 9,1 11 6 22 12 W 1021,0 35
16.06.2019 18:00:00 18,0 8,9 7 4 22 12 W 1020,9 45
16.06.2019 17:00:00 17,6 9,8 11 6 - - W 1021,1 40
16.06.2019 16:00:00 17,1 10,0 11 6 25 14 W 1021,4 40
16.06.2019 15:00:00 16,8 8,7 11 6 29 16 W 1021,3 40
16.06.2019 14:00:00 16,4 9,1 11 6 - - ZW 1021,3 40
16.06.2019 13:00:00 16,2 8,9 14 8 29 16 ZW 1021,4 40
16.06.2019 12:00:00 15,8 8,8 14 8 29 16 W 1021,4 45
16.06.2019 11:00:00 15,2 8,8 18 10 - - WZW 1021,1 40
16.06.2019 10:00:00 14,4 8,8 14 8 25 14 ZW 1020,9 40
16.06.2019 09:00:00 13,8 8,7 14 8 25 14 WZW 1020,8 35
16.06.2019 08:00:00 13,3 8,6 7 4 - - ZW 1020,2 40
16.06.2019 07:00:00 12,1 7,3 11 6 18 10 ZZW 1020,4 45
16.06.2019 06:00:00 11,9 6,7 11 6 14 8 ZZW 1020,1 45
16.06.2019 05:00:00 12,6 7,1 11 6 - - ZW 1019,6 45
16.06.2019 04:00:00 12,7 6,8 11 6 14 8 ZW 1019,4 45
16.06.2019 03:00:00 13,2 7,2 11 6 14 8 ZW 1019,3 50
16.06.2019 02:00:00 13,7 7,7 7 4 - - ZW 1019,2 45
16.06.2019 01:00:00 15,0 8,5 11 6 14 8 ZW 1018,9 50
16.06.2019 00:00:00 14,9 8,3 11 6 14 8 WZW 1018,0 45
15.06.2019 23:00:00 13,5 7,2 7 4 - - ZZW 1017,5 45
15.06.2019 22:00:00 15,9 8,3 7 4 11 6 WZW 1016,6 45
15.06.2019 21:00:00 17,0 8,4 7 4 14 8 WZW 1016,2 40
15.06.2019 20:00:00 17,9 8,8 7 4 - - W 1015,8 45
15.06.2019 19:00:00 19,1 9,2 14 8 29 16 W 1015,3 40
15.06.2019 18:00:00 20,0 9,1 14 8 29 16 W 1015,2 30
15.06.2019 17:00:00 19,4 8,5 11 6 - - W 1015,4 40
15.06.2019 16:00:00 19,5 9,0 14 8 32 18 W 1015,4 35
15.06.2019 15:00:00 18,8 8,8 18 10 32 18 W 1015,3 40
15.06.2019 14:00:00 18,2 10,7 14 8 - - W 1015,2 30
15.06.2019 13:00:00 17,0 12,3 18 10 36 19 WZW 1014,9 35
15.06.2019 12:00:00 15,8 13,9 11 6 22 12 WZW 1014,4 40
15.06.2019 11:00:00 14,9 13,8 11 6 - - W 1014,0 30
15.06.2019 10:00:00 14,7 11,9 11 6 29 16 W 1013,4 35
15.06.2019 09:00:00 14,3 12,1 18 10 29 16 WZW 1012,7 28
15.06.2019 08:00:00 13,8 12,3 14 8 - - WZW 1011,9 5
15.06.2019 07:00:00 13,9 12,2 14 8 22 12 Z 1011,2 17
15.06.2019 06:00:00 13,8 12,6 11 6 18 10 Z 1011,3 7
15.06.2019 05:00:00 14,0 11,9 11 6 - - ZZW 1011,4 4,4
15.06.2019 04:00:00 14,0 10,1 4 2 18 10 Z 1010,7 9
15.06.2019 03:00:00 14,3 10,3 7 4 18 10 ZW 1011,8 15
15.06.2019 02:00:00 14,6 9,8 4 2 - - O 1010,5 22
15.06.2019 01:00:00 14,4 8,8 0 0 11 6 N 1012,6 17
15.06.2019 00:00:00 14,9 8,5 7 4 14 8 ZO 1013,5 9

tt = temperatuur
td = dauwpunt
ff = windsnelheid
fx = windstoten
dd = windrichting
ppp = luchtdruk
vv = zicht

Weerstations in de omgeving